| time (UTC) | temp F | wind direction | speed MPH | gust MPH | rain 1hr in | rain 24hr in | rain mn in | humidity % | barometer mb |
| 20260506032306 | 69 | 8 | 9.0 | 14.0 | 0.00 | 0.00 | 0.00 | 74 | 1006.6 |
| 20260506032004 | 69 | 355 | 5.0 | 11.0 | 0.00 | 0.00 | 0.00 | 74 | 1007.3 |
| 20260506031303 | 70 | 349 | 6.0 | 12.0 | 0.00 | 0.00 | 0.00 | 74 | 1006.9 |
| 20260506031006 | 70 | 28 | 6.0 | 13.0 | 0.00 | 0.00 | 0.00 | 74 | 1007.6 |
| 20260506030509 | 70 | 325 | 7.0 | 13.0 | 0.00 | 0.00 | 0.00 | 75 | 1007.5 |
| 20260506025503 | 71 | 349 | 6.0 | 11.0 | 0.00 | 0.00 | 0.00 | 74 | 1007.1 |
| 20260506024505 | 72 | 17 | 7.0 | 13.0 | 0.00 | 0.00 | 0.00 | 73 | 1006.8 |
| 20260506024002 | 73 | 304 | 6.0 | 12.0 | 0.00 | 0.00 | 0.00 | 72 | 1006.7 |
| 20260506023804 | 73 | 341 | 8.0 | 13.0 | 0.00 | 0.00 | 0.00 | 72 | 1005.7 |
| 20260506023506 | 73 | 355 | 5.0 | 11.0 | 0.00 | 0.00 | 0.00 | 72 | 1006.4 |
| 20260506023304 | 74 | 11 | 7.0 | 13.0 | 0.00 | 0.00 | 0.00 | 72 | 1005.6 |
| 20260506023003 | 73 | 348 | 5.0 | 11.0 | 0.00 | 0.00 | 0.00 | 72 | 1006.3 |
| 20260506022500 | 73 | 336 | 4.0 | 10.0 | 0.00 | 0.00 | 0.00 | 72 | 1006.1 |
| 20260506022306 | 74 | 13 | 6.0 | 10.0 | 0.00 | 0.00 | 0.00 | 72 | 1005.2 |
| 20260506022003 | 73 | 15 | 4.0 | 8.0 | 0.00 | 0.00 | 0.00 | 72 | 1005.9 |
| 20260506021505 | 73 | 21 | 3.0 | 8.0 | 0.00 | 0.00 | 0.00 | 71 | 1005.9 |
| 20260506021304 | 74 | 6 | 4.0 | 8.0 | 0.00 | 0.00 | 0.00 | 71 | 1005.1 |
| 20260506021004 | 74 | 12 | 4.0 | 8.0 | 0.00 | 0.00 | 0.00 | 71 | 1005.8 |
| 20260506020502 | 74 | 5 | 3.0 | 8.0 | 0.00 | 0.00 | 0.00 | 71 | 1005.9 |
| 20260506020008 | 74 | 348 | 3.0 | 10.0 | 0.00 | 0.00 | 0.00 | 71 | 1005.8 |
| 20260506015804 | 74 | 352 | 4.0 | 10.0 | 0.00 | 0.00 | 0.00 | 70 | 1004.9 |
| 20260506015306 | 74 | 349 | 7.0 | 13.0 | 0.00 | 0.00 | 0.00 | 70 | 1005.2 |
| 20260506014504 | 74 | 355 | 6.0 | 11.0 | 0.00 | 0.00 | 0.00 | 69 | 1005.6 |
| 20260506014304 | 75 | 9 | 6.0 | 13.0 | 0.00 | 0.00 | 0.00 | 69 | 1004.6 |
| 20260506014010 | 74 | 339 | 6.0 | 11.0 | 0.00 | 0.00 | 0.00 | 69 | 1005.4 |
| 20260506013505 | 74 | 34 | 5.0 | 10.0 | 0.00 | 0.00 | 0.00 | 68 | 1005.2 |
| 20260506013305 | 75 | 1 | 7.0 | 10.0 | 0.00 | 0.00 | 0.00 | 68 | 1004.5 |
| 20260506012803 | 75 | 354 | 7.0 | 13.0 | 0.00 | 0.00 | 0.00 | 68 | 1005.0 |
| 20260506012506 | 75 | 341 | 6.0 | 12.0 | 0.00 | 0.00 | 0.00 | 68 | 1005.7 |
| 20260506012307 | 75 | 346 | 7.0 | 15.0 | 0.00 | 0.00 | 0.00 | 68 | 1005.0 |
| 20260506012007 | 75 | 12 | 7.0 | 14.0 | 0.00 | 0.00 | 0.00 | 67 | 1005.7 |
| 20260506011804 | 76 | 1 | 6.0 | 14.0 | 0.00 | 0.00 | 0.00 | 68 | 1004.6 |
| 20260506011507 | 75 | 338 | 8.0 | 14.0 | 0.00 | 0.00 | 0.00 | 68 | 1005.3 |
| 20260506011009 | 76 | 16 | 7.0 | 12.0 | 0.00 | 0.00 | 0.00 | 68 | 1004.9 |
| 20260506010505 | 77 | 23 | 6.0 | 11.0 | 0.00 | 0.00 | 0.00 | 67 | 1005.1 |
| 20260506010303 | 78 | 1 | 7.0 | 13.0 | 0.00 | 0.00 | 0.00 | 67 | 1004.0 |
| 20260506010003 | 77 | 355 | 6.0 | 11.0 | 0.00 | 0.00 | 0.00 | 67 | 1004.7 |
| 20260506005505 | 78 | 11 | 6.0 | 9.0 | 0.00 | 0.00 | 0.00 | 67 | 1004.8 |
| 20260506005306 | 78 | 4 | 7.0 | 10.0 | 0.00 | 0.00 | 0.00 | 66 | 1004.1 |
| 20260506005005 | 78 | 15 | 5.0 | 9.0 | 0.00 | 0.00 | 0.00 | 66 | 1005.0 |
| 20260506004503 | 78 | 17 | 4.0 | 6.0 | 0.00 | 0.00 | 0.00 | 66 | 1004.9 |
| 20260506004303 | 79 | 5 | 5.0 | 9.0 | 0.00 | 0.00 | 0.00 | 65 | 1004.1 |
| 20260506003502 | 79 | 333 | 4.0 | 9.0 | 0.00 | 0.00 | 0.00 | 65 | 1004.6 |
| 20260506003006 | 80 | 54 | 3.0 | 9.0 | 0.00 | 0.00 | 0.00 | 64 | 1004.7 |
| 20260506002502 | 80 | 355 | 2.0 | 8.0 | 0.00 | 0.00 | 0.00 | 63 | 1004.8 |
| 20260506002306 | 81 | 322 | 2.0 | 6.0 | 0.00 | 0.00 | 0.00 | 63 | 1003.7 |
| 20260506002005 | 81 | 283 | 2.0 | 6.0 | 0.00 | 0.00 | 0.00 | 63 | 1004.9 |
| 20260506001501 | 82 | 348 | 2.0 | 6.0 | 0.00 | 0.00 | 0.00 | 61 | 1004.8 |
| 20260506001304 | 82 | 337 | 3.0 | 9.0 | 0.00 | 0.00 | 0.00 | 60 | 1003.7 |
| 20260506000504 | 83 | 265 | 3.0 | 9.0 | 0.00 | 0.00 | 0.00 | 67 | 1004.3 |
| 20260506000304 | 83 | 256 | 3.0 | 9.0 | 0.00 | 0.00 | 0.00 | 65 | 1003.4 |
| 20260506000004 | 82 | 223 | 4.0 | 9.0 | 0.00 | 0.00 | 0.00 | 63 | 1004.1 |
| 20260505235505 | 82 | 217 | 3.0 | 10.0 | 0.00 | 0.00 | 0.00 | 73 | 1003.8 |
| 20260505234501 | 81 | 191 | 6.0 | 10.0 | 0.00 | 0.00 | 0.00 | 74 | 1003.6 |
| 20260505234005 | 82 | 171 | 6.0 | 11.0 | 0.00 | 0.00 | 0.00 | 74 | 1003.3 |
| 20260505233804 | 82 | 160 | 7.0 | 12.0 | 0.00 | 0.00 | 0.00 | 73 | 1002.9 |
| 20260505233508 | 82 | 165 | 7.0 | 11.0 | 0.00 | 0.00 | 0.00 | 73 | 1003.5 |
| 20260505233004 | 82 | 152 | 7.0 | 14.0 | 0.00 | 0.00 | 0.00 | 72 | 1003.6 |
| 20260505232804 | 83 | 173 | 9.0 | 16.0 | 0.00 | 0.00 | 0.00 | 73 | 1002.8 |
| 20260505232005 | 83 | 177 | 8.0 | 14.0 | 0.00 | 0.00 | 0.00 | 72 | 1003.4 |
| 20260505231304 | 83 | 171 | 9.0 | 14.0 | 0.00 | 0.00 | 0.00 | 72 | 1002.8 |
| 20260505230502 | 83 | 179 | 7.0 | 14.0 | 0.00 | 0.00 | 0.00 | 72 | 1003.4 |
| 20260505230007 | 83 | 168 | 7.0 | 11.0 | 0.00 | 0.00 | 0.00 | 71 | 1003.2 |
| 20260505225501 | 83 | 145 | 6.0 | 12.0 | 0.00 | 0.00 | 0.00 | 72 | 1003.3 |
| 20260505224504 | 83 | 201 | 8.0 | 12.0 | 0.00 | 0.00 | 0.00 | 72 | 1003.3 |
| 20260505224003 | 83 | 159 | 8.0 | 13.0 | 0.00 | 0.00 | 0.00 | 71 | 1003.3 |
| 20260505223507 | 83 | 169 | 8.0 | 13.0 | 0.00 | 0.00 | 0.00 | 70 | 1003.2 |
| 20260505223304 | 84 | 171 | 10.0 | 17.0 | 0.00 | 0.00 | 0.00 | 70 | 1002.4 |
| 20260505223007 | 84 | 154 | 7.0 | 15.0 | 0.00 | 0.00 | 0.00 | 70 | 1003.0 |
| 20260505222503 | 84 | 171 | 7.0 | 13.0 | 0.00 | 0.00 | 0.00 | 70 | 1002.9 |
| 20260505222305 | 84 | 161 | 9.0 | 16.0 | 0.00 | 0.00 | 0.00 | 70 | 1002.4 |
| 20260505222003 | 84 | 167 | 7.0 | 12.0 | 0.00 | 0.00 | 0.00 | 69 | 1003.1 |
| 20260505221505 | 84 | 150 | 6.0 | 12.0 | 0.00 | 0.00 | 0.00 | 68 | 1003.2 |
| 20260505221303 | 85 | 167 | 9.0 | 15.0 | 0.00 | 0.00 | 0.00 | 68 | 1002.5 |
| 20260505221005 | 85 | 131 | 6.0 | 12.0 | 0.00 | 0.00 | 0.00 | 67 | 1003.1 |
| 20260505220804 | 86 | 158 | 7.0 | 12.0 | 0.00 | 0.00 | 0.00 | 66 | 1002.5 |
| 20260505220502 | 86 | 160 | 6.0 | 11.0 | 0.00 | 0.00 | 0.00 | 66 | 1003.1 |
| 20260505220304 | 87 | 165 | 7.0 | 14.0 | 0.00 | 0.00 | 0.00 | 66 | 1002.4 |
| 20260505220004 | 87 | 148 | 5.0 | 11.0 | 0.00 | 0.00 | 0.00 | 64 | 1003.1 |
| 20260505215804 | 88 | 194 | 7.0 | 10.0 | 0.00 | 0.00 | 0.00 | 61 | 1002.3 |
| 20260505214504 | 87 | 223 | 5.0 | 9.0 | 0.00 | 0.00 | 0.00 | 60 | 1003.2 |
| 20260505214303 | 87 | 215 | 6.0 | 13.0 | 0.00 | 0.00 | 0.00 | 61 | 1002.5 |
| 20260505213804 | 87 | 188 | 6.0 | 10.0 | 0.00 | 0.00 | 0.00 | 63 | 1002.6 |
| 20260505213501 | 88 | 155 | 6.0 | 10.0 | 0.00 | 0.00 | 0.00 | 62 | 1003.3 |
| 20260505213304 | 88 | 159 | 7.0 | 13.0 | 0.00 | 0.00 | 0.00 | 61 | 1002.6 |
| 20260505213005 | 88 | 211 | 6.0 | 10.0 | 0.00 | 0.00 | 0.00 | 60 | 1003.2 |
| 20260505212504 | 88 | 171 | 5.0 | 9.0 | 0.00 | 0.00 | 0.00 | 62 | 1003.3 |
| 20260505212305 | 88 | 202 | 7.0 | 12.0 | 0.00 | 0.00 | 0.00 | 60 | 1002.8 |
| 20260505211804 | 88 | 230 | 6.0 | 13.0 | 0.00 | 0.00 | 0.00 | 60 | 1002.8 |
| 20260505211501 | 88 | 236 | 7.0 | 15.0 | 0.00 | 0.00 | 0.00 | 60 | 1003.5 |
| 20260505211004 | 87 | 191 | 7.0 | 15.0 | 0.00 | 0.00 | 0.00 | 60 | 1003.4 |
| 20260505210804 | 88 | 207 | 9.0 | 18.0 | 0.00 | 0.00 | 0.00 | 60 | 1002.8 |
| 20260505210008 | 87 | 187 | 7.0 | 14.0 | 0.00 | 0.00 | 0.00 | 61 | 1003.4 |
| 20260505205500 | 87 | 205 | 8.0 | 15.0 | 0.00 | 0.00 | 0.00 | 59 | 1003.6 |
| 20260505205305 | 88 | 235 | 8.0 | 17.0 | 0.00 | 0.00 | 0.00 | 60 | 1003.0 |
| 20260505205006 | 87 | 244 | 9.0 | 19.0 | 0.00 | 0.00 | 0.00 | 60 | 1003.7 |
| 20260505204504 | 88 | 226 | 7.0 | 19.0 | 0.00 | 0.00 | 0.00 | 59 | 1003.7 |
| 20260505204304 | 88 | 239 | 10.0 | 24.0 | 0.00 | 0.00 | 0.00 | 60 | 1003.2 |
| 20260505203504 | 87 | 248 | 8.0 | 14.0 | 0.00 | 0.00 | 0.00 | 61 | 1003.8 |
| 20260505203011 | 87 | 215 | 7.0 | 13.0 | 0.00 | 0.00 | 0.00 | 63 | 1003.8 |
| 20260505202502 | 86 | 203 | 9.0 | 15.0 | 0.00 | 0.00 | 0.00 | 62 | 1003.8 |
| 20260505202009 | 86 | 221 | 9.0 | 15.0 | 0.00 | 0.00 | 0.00 | 61 | 1004.0 |
| 20260505201804 | 87 | 217 | 11.0 | 20.0 | 0.00 | 0.00 | 0.00 | 62 | 1003.2 |
| 20260505201503 | 86 | 171 | 8.0 | 18.0 | 0.00 | 0.00 | 0.00 | 62 | 1004.0 |
| 20260505201005 | 86 | 211 | 7.0 | 18.0 | 0.00 | 0.00 | 0.00 | 63 | 1004.0 |
| 20260505200804 | 86 | 217 | 7.0 | 16.0 | 0.00 | 0.00 | 0.00 | 63 | 1003.2 |
| 20260505200503 | 86 | 220 | 8.0 | 17.0 | 0.00 | 0.00 | 0.00 | 65 | 1004.0 |
| 20260505195305 | 86 | 217 | 9.0 | 23.0 | 0.00 | 0.00 | 0.00 | 65 | 1003.3 |
| 20260505195006 | 85 | 196 | 8.0 | 18.0 | 0.00 | 0.00 | 0.00 | 65 | 1004.1 |
| 20260505194804 | 86 | 216 | 9.0 | 15.0 | 0.00 | 0.00 | 0.00 | 64 | 1003.3 |
| 20260505194505 | 85 | 237 | 6.0 | 11.0 | 0.00 | 0.00 | 0.00 | 65 | 1004.1 |
| 20260505194304 | 86 | 206 | 8.0 | 14.0 | 0.00 | 0.00 | 0.00 | 65 | 1003.4 |
| 20260505193804 | 85 | 181 | 8.0 | 13.0 | 0.00 | 0.00 | 0.00 | 66 | 1003.3 |
| 20260505193504 | 84 | 195 | 8.0 | 16.0 | 0.00 | 0.00 | 0.00 | 67 | 1004.1 |
| 20260505193010 | 84 | 202 | 7.0 | 16.0 | 0.00 | 0.00 | 0.00 | 68 | 1004.1 |
| 20260505192804 | 85 | 224 | 9.0 | 20.0 | 0.00 | 0.00 | 0.00 | 67 | 1003.4 |
| 20260505192501 | 84 | 169 | 7.0 | 16.0 | 0.00 | 0.00 | 0.00 | 66 | 1004.1 |
| 20260505192305 | 85 | 211 | 9.0 | 14.0 | 0.00 | 0.00 | 0.00 | 67 | 1003.5 |
| 20260505192003 | 84 | 181 | 7.0 | 13.0 | 0.00 | 0.00 | 0.00 | 68 | 1004.2 |
| 20260505191804 | 84 | 211 | 8.0 | 16.0 | 0.00 | 0.00 | 0.00 | 68 | 1003.5 |
| 20260505191502 | 83 | 209 | 8.0 | 13.0 | 0.00 | 0.00 | 0.00 | 68 | 1004.1 |
| 20260505191001 | 83 | 228 | 9.0 | 13.0 | 0.00 | 0.00 | 0.00 | 67 | 1004.3 |
| 20260505190804 | 83 | 217 | 10.0 | 17.0 | 0.00 | 0.00 | 0.00 | 68 | 1003.6 |
| 20260505190304 | 83 | 210 | 10.0 | 20.0 | 0.00 | 0.00 | 0.00 | 68 | 1003.6 |
| 20260505190014 | 83 | 222 | 8.0 | 16.0 | 0.00 | 0.00 | 0.00 | 68 | 1004.2 |
| 20260505185505 | 83 | 213 | 7.0 | 15.0 | 0.00 | 0.00 | 0.00 | 68 | 1004.4 |
| 20260505185006 | 83 | 236 | 9.0 | 16.0 | 0.00 | 0.00 | 0.00 | 69 | 1004.5 |
| 20260505184006 | 82 | 240 | 9.0 | 14.0 | 0.00 | 0.00 | 0.00 | 68 | 1004.4 |
| 20260505183506 | 82 | 194 | 8.0 | 16.0 | 0.00 | 0.00 | 0.00 | 68 | 1004.5 |
| 20260505183004 | 82 | 222 | 9.0 | 18.0 | 0.00 | 0.00 | 0.00 | 69 | 1004.5 |
| 20260505182504 | 82 | 186 | 9.0 | 18.0 | 0.00 | 0.00 | 0.00 | 68 | 1004.4 |
| 20260505182306 | 82 | 205 | 12.0 | 18.0 | 0.00 | 0.00 | 0.00 | 68 | 1003.7 |
| 20260505182006 | 82 | 247 | 7.0 | 13.0 | 0.00 | 0.00 | 0.00 | 68 | 1004.5 |
| 20260505181804 | 83 | 209 | 10.0 | 17.0 | 0.00 | 0.00 | 0.00 | 68 | 1003.8 |
| 20260505181502 | 82 | 220 | 8.0 | 15.0 | 0.00 | 0.00 | 0.00 | 68 | 1004.6 |
| 20260505181004 | 82 | 221 | 8.0 | 15.0 | 0.00 | 0.00 | 0.00 | 68 | 1004.6 |
| 20260505180804 | 83 | 204 | 12.0 | 17.0 | 0.00 | 0.00 | 0.00 | 67 | 1003.9 |
| 20260505180505 | 82 | 196 | 8.0 | 14.0 | 0.00 | 0.00 | 0.00 | 67 | 1004.7 |
| 20260505180006 | 82 | 174 | 9.0 | 15.0 | 0.00 | 0.00 | 0.00 | 68 | 1004.7 |
| 20260505175503 | 82 | 187 | 9.0 | 17.0 | 0.00 | 0.00 | 0.00 | 68 | 1004.6 |
| 20260505175005 | 82 | 217 | 8.0 | 17.0 | 0.00 | 0.00 | 0.00 | 68 | 1004.7 |
| 20260505174503 | 81 | 174 | 9.0 | 16.0 | 0.00 | 0.00 | 0.00 | 68 | 1004.8 |
| 20260505174304 | 82 | 210 | 10.0 | 23.0 | 0.00 | 0.00 | 0.00 | 68 | 1004.1 |
| 20260505174005 | 82 | 178 | 8.0 | 16.0 | 0.00 | 0.00 | 0.00 | 68 | 1004.9 |
| 20260505173504 | 82 | 225 | 9.0 | 15.0 | 0.00 | 0.00 | 0.00 | 69 | 1004.8 |
| 20260505173304 | 82 | 203 | 10.0 | 18.0 | 0.00 | 0.00 | 0.00 | 69 | 1004.0 |
| 20260505173004 | 81 | 203 | 8.0 | 14.0 | 0.00 | 0.00 | 0.00 | 69 | 1004.8 |
| 20260505172007 | 81 | 229 | 10.0 | 18.0 | 0.00 | 0.00 | 0.00 | 71 | 1004.8 |
| 20260505171503 | 80 | 193 | 10.0 | 18.0 | 0.00 | 0.00 | 0.00 | 70 | 1004.9 |
| 20260505171304 | 81 | 223 | 13.0 | 20.0 | 0.00 | 0.00 | 0.00 | 70 | 1004.1 |
| 20260505171004 | 80 | 208 | 9.0 | 18.0 | 0.00 | 0.00 | 0.00 | 71 | 1004.8 |
| 20260505170501 | 80 | 202 | 9.0 | 18.0 | 0.00 | 0.00 | 0.00 | 71 | 1005.0 |
| 20260505165500 | 80 | 200 | 8.0 | 14.0 | 0.00 | 0.00 | 0.00 | 71 | 1004.8 |
| 20260505165306 | 81 | 211 | 12.0 | 17.0 | 0.00 | 0.00 | 0.00 | 71 | 1004.1 |
| 20260505165004 | 80 | 190 | 8.0 | 18.0 | 0.00 | 0.00 | 0.00 | 72 | 1004.7 |
| 20260505164504 | 80 | 167 | 9.0 | 19.0 | 0.00 | 0.00 | 0.00 | 72 | 1004.9 |
| 20260505164304 | 80 | 211 | 14.0 | 24.0 | 0.00 | 0.00 | 0.00 | 71 | 1004.0 |
| 20260505164003 | 80 | 200 | 9.0 | 19.0 | 0.00 | 0.00 | 0.00 | 71 | 1004.9 |
| 20260505163804 | 80 | 215 | 12.0 | 18.0 | 0.00 | 0.00 | 0.00 | 71 | 1004.0 |
| 20260505163501 | 80 | 213 | 10.0 | 19.0 | 0.00 | 0.00 | 0.00 | 72 | 1004.8 |
| 20260505163304 | 80 | 198 | 12.0 | 25.0 | 0.00 | 0.00 | 0.00 | 72 | 1004.0 |
| 20260505163005 | 79 | 181 | 9.0 | 19.0 | 0.00 | 0.00 | 0.00 | 72 | 1004.8 |
| 20260505162803 | 80 | 206 | 11.0 | 20.0 | 0.00 | 0.00 | 0.00 | 72 | 1004.0 |
| 20260505162306 | 80 | 194 | 10.0 | 18.0 | 0.00 | 0.00 | 0.00 | 72 | 1004.0 |
| 20260505162004 | 79 | 212 | 10.0 | 18.0 | 0.00 | 0.00 | 0.00 | 73 | 1004.6 |
| 20260505161804 | 79 | 205 | 14.0 | 21.0 | 0.00 | 0.00 | 0.00 | 72 | 1003.9 |
| 20260505161001 | 79 | 190 | 9.0 | 16.0 | 0.00 | 0.00 | 0.00 | 74 | 1004.5 |
| 20260505160804 | 79 | 203 | 11.0 | 16.0 | 0.00 | 0.00 | 0.00 | 73 | 1003.6 |
| 20260505160504 | 78 | 186 | 9.0 | 19.0 | 0.00 | 0.00 | 0.00 | 74 | 1004.5 |
| 20260505153003 | 76 | 196 | 9.0 | 16.0 | 0.00 | 0.00 | 0.00 | 77 | 1004.6 |
| 20260505152804 | 76 | 188 | 9.0 | 15.0 | 0.00 | 0.00 | 0.00 | 78 | 1004.1 |
| 20260505152500 | 76 | 189 | 9.0 | 18.0 | 0.00 | 0.00 | 0.00 | 78 | 1004.7 |
| 20260505152305 | 76 | 208 | 11.0 | 20.0 | 0.00 | 0.00 | 0.00 | 77 | 1004.1 |
| 20260505152007 | 76 | 226 | 10.0 | 19.0 | 0.00 | 0.00 | 0.00 | 78 | 1004.7 |
| 20260505151804 | 76 | 201 | 14.0 | 24.0 | 0.00 | 0.00 | 0.00 | 78 | 1003.9 |
| 20260505151500 | 75 | 190 | 8.0 | 19.0 | 0.00 | 0.00 | 0.00 | 78 | 1004.7 |
| 20260505151304 | 76 | 199 | 9.0 | 15.0 | 0.00 | 0.00 | 0.00 | 79 | 1003.9 |
| 20260505150505 | 75 | 217 | 9.0 | 18.0 | 0.00 | 0.00 | 0.00 | 79 | 1004.8 |
| 20260505150304 | 75 | 199 | 11.0 | 20.0 | 0.00 | 0.00 | 0.00 | 79 | 1004.2 |
| 20260505140503 | 73 | 178 | 8.0 | 18.0 | 0.00 | 0.00 | 0.00 | 82 | 1004.6 |
| 20260505140304 | 73 | 211 | 9.0 | 23.0 | 0.00 | 0.00 | 0.00 | 82 | 1003.8 |
| 20260505125001 | 71 | 201 | 8.0 | 13.0 | 0.00 | 0.00 | 0.00 | 84 | 1004.5 |
| 20260505124503 | 71 | 203 | 8.0 | 16.0 | 0.00 | 0.00 | 0.00 | 84 | 1004.3 |
| 20260505124003 | 71 | 234 | 9.0 | 16.0 | 0.00 | 0.00 | 0.00 | 84 | 1004.1 |
| 20260505123501 | 71 | 219 | 8.0 | 13.0 | 0.00 | 0.00 | 0.00 | 84 | 1004.1 |
| 20260505123005 | 71 | 202 | 7.0 | 14.0 | 0.00 | 0.00 | 0.00 | 84 | 1004.0 |
| 20260505122504 | 71 | 232 | 7.0 | 14.0 | 0.00 | 0.00 | 0.00 | 84 | 1004.1 |
| 20260505122001 | 71 | 210 | 7.0 | 15.0 | 0.00 | 0.00 | 0.00 | 84 | 1004.0 |
| 20260505121804 | 71 | 193 | 10.0 | 18.0 | 0.00 | 0.00 | 0.00 | 83 | 1003.4 |
| 20260505121502 | 71 | 239 | 7.0 | 15.0 | 0.00 | 0.00 | 0.00 | 84 | 1004.0 |
| 20260505121304 | 71 | 213 | 7.0 | 12.0 | 0.00 | 0.00 | 0.00 | 84 | 1003.3 |
| 20260505121004 | 71 | 186 | 7.0 | 11.0 | 0.00 | 0.00 | 0.00 | 83 | 1004.0 |
| 20260505120804 | 71 | 207 | 10.0 | 15.0 | 0.00 | 0.00 | 0.00 | 84 | 1003.3 |
| 20260505120506 | 71 | 169 | 7.0 | 15.0 | 0.00 | 0.00 | 0.00 | 83 | 1003.9 |
| 20260505120303 | 71 | 206 | 8.0 | 15.0 | 0.00 | 0.00 | 0.00 | 83 | 1003.4 |
| 20260505120007 | 71 | 221 | 7.0 | 15.0 | 0.00 | 0.00 | 0.00 | 83 | 1003.9 |
| 20260505115007 | 71 | 211 | 8.0 | 15.0 | 0.00 | 0.00 | 0.00 | 83 | 1003.9 |
| 20260505114001 | 71 | 211 | 8.0 | 16.0 | 0.00 | 0.00 | 0.00 | 83 | 1003.7 |
| 20260505113804 | 71 | 203 | 12.0 | 17.0 | 0.00 | 0.00 | 0.00 | 83 | 1002.9 |
| 20260505113500 | 71 | 195 | 8.0 | 14.0 | 0.00 | 0.00 | 0.00 | 83 | 1003.6 |
| 20260505113304 | 71 | 184 | 9.0 | 18.0 | 0.00 | 0.00 | 0.00 | 83 | 1002.9 |
| 20260505113005 | 71 | 224 | 9.0 | 15.0 | 0.00 | 0.00 | 0.00 | 83 | 1003.6 |
| 20260505112504 | 71 | 178 | 9.0 | 15.0 | 0.00 | 0.00 | 0.00 | 83 | 1003.5 |
| 20260505112305 | 71 | 200 | 12.0 | 20.0 | 0.00 | 0.00 | 0.00 | 83 | 1002.9 |
| 20260505112007 | 71 | 212 | 8.0 | 16.0 | 0.00 | 0.00 | 0.00 | 83 | 1003.5 |
| 20260505111504 | 71 | 175 | 9.0 | 17.0 | 0.00 | 0.00 | 0.00 | 83 | 1003.6 |
| 20260505111304 | 71 | 219 | 11.0 | 23.0 | 0.00 | 0.00 | 0.00 | 83 | 1002.9 |
| 20260505111001 | 71 | 194 | 9.0 | 17.0 | 0.00 | 0.00 | 0.00 | 83 | 1003.6 |
| 20260505110501 | 71 | 186 | 8.0 | 13.0 | 0.00 | 0.00 | 0.00 | 83 | 1003.6 |
| 20260505110304 | 71 | 190 | 8.0 | 16.0 | 0.00 | 0.00 | 0.00 | 83 | 1002.8 |
| 20260505102006 | 71 | 196 | 8.0 | 23.0 | 0.00 | 0.00 | 0.00 | 83 | 1003.8 |
| 20260505101804 | 71 | 197 | 12.0 | 30.0 | 0.00 | 0.00 | 0.00 | 83 | 1003.2 |
| 20260505101304 | 71 | 204 | 9.0 | 16.0 | 0.00 | 0.00 | 0.00 | 83 | 1003.2 |
| 20260505101002 | 71 | 209 | 9.0 | 16.0 | 0.00 | 0.00 | 0.00 | 83 | 1003.8 |
| 20260505100501 | 71 | 184 | 9.0 | 17.0 | 0.00 | 0.00 | 0.00 | 83 | 1003.7 |
| 20260505100001 | 71 | 196 | 8.0 | 17.0 | 0.00 | 0.00 | 0.00 | 83 | 1003.7 |
| 20260505095305 | 71 | 209 | 10.0 | 21.0 | 0.00 | 0.00 | 0.00 | 83 | 1003.3 |
| 20260505095007 | 71 | 190 | 9.0 | 20.0 | 0.00 | 0.00 | 0.00 | 83 | 1003.8 |
| 20260505094804 | 71 | 203 | 13.0 | 23.0 | 0.00 | 0.00 | 0.00 | 83 | 1003.1 |
| 20260505094004 | 71 | 212 | 9.0 | 17.0 | 0.00 | 0.00 | 0.00 | 83 | 1003.9 |
| 20260505093503 | 71 | 239 | 9.0 | 17.0 | 0.00 | 0.00 | 0.00 | 83 | 1003.9 |
| 20260505093304 | 71 | 200 | 10.0 | 17.0 | 0.00 | 0.00 | 0.00 | 83 | 1003.4 |
| 20260505093006 | 71 | 180 | 9.0 | 15.0 | 0.00 | 0.00 | 0.00 | 83 | 1004.0 |
| 20260505092501 | 71 | 201 | 9.0 | 17.0 | 0.00 | 0.00 | 0.00 | 83 | 1004.1 |
| 20260505092305 | 71 | 191 | 13.0 | 21.0 | 0.00 | 0.00 | 0.00 | 83 | 1003.5 |
| 20260505092003 | 71 | 198 | 9.0 | 17.0 | 0.00 | 0.00 | 0.00 | 83 | 1004.0 |
| 20260505091506 | 71 | 181 | 9.0 | 17.0 | 0.00 | 0.00 | 0.00 | 83 | 1004.0 |
| 20260505091003 | 71 | 174 | 9.0 | 17.0 | 0.00 | 0.00 | 0.00 | 83 | 1004.0 |
| 20260505090804 | 71 | 192 | 10.0 | 23.0 | 0.00 | 0.00 | 0.00 | 83 | 1003.4 |
| 20260505090502 | 71 | 201 | 9.0 | 17.0 | 0.00 | 0.00 | 0.00 | 83 | 1004.0 |
| 20260505090304 | 71 | 200 | 10.0 | 21.0 | 0.00 | 0.00 | 0.00 | 83 | 1003.4 |
| 20260505090007 | 71 | 211 | 10.0 | 17.0 | 0.00 | 0.00 | 0.00 | 83 | 1003.9 |
| 20260505085804 | 71 | 198 | 11.0 | 21.0 | 0.00 | 0.00 | 0.00 | 83 | 1003.4 |
| 20260505085500 | 71 | 184 | 9.0 | 17.0 | 0.00 | 0.00 | 0.00 | 83 | 1003.9 |
| 20260505085305 | 71 | 188 | 12.0 | 23.0 | 0.00 | 0.00 | 0.00 | 83 | 1003.4 |
| 20260505085005 | 71 | 184 | 10.0 | 21.0 | 0.00 | 0.00 | 0.00 | 83 | 1003.9 |
| 20260505084503 | 71 | 215 | 10.0 | 21.0 | 0.00 | 0.00 | 0.00 | 83 | 1004.0 |
| 20260505084303 | 71 | 206 | 13.0 | 24.0 | 0.00 | 0.00 | 0.00 | 83 | 1003.3 |
| 20260505084003 | 71 | 179 | 10.0 | 19.0 | 0.00 | 0.00 | 0.00 | 83 | 1003.9 |
| 20260505083804 | 71 | 191 | 12.0 | 21.0 | 0.00 | 0.00 | 0.00 | 83 | 1003.4 |
| 20260505082804 | 71 | 197 | 13.0 | 20.0 | 0.00 | 0.00 | 0.00 | 83 | 1003.4 |
| 20260505082025 | 71 | 215 | 10.0 | 20.0 | 0.00 | 0.00 | 0.00 | 83 | 1004.0 |
| 20260505081502 | 71 | 236 | 10.0 | 20.0 | 0.00 | 0.00 | 0.00 | 83 | 1004.0 |
| 20260505081304 | 71 | 199 | 13.0 | 21.0 | 0.00 | 0.00 | 0.00 | 83 | 1003.5 |
| 20260505081005 | 71 | 227 | 10.0 | 17.0 | 0.00 | 0.00 | 0.00 | 83 | 1004.0 |
| 20260505080804 | 71 | 195 | 14.0 | 23.0 | 0.00 | 0.00 | 0.00 | 82 | 1003.5 |
| 20260505080007 | 71 | 165 | 10.0 | 19.0 | 0.00 | 0.00 | 0.00 | 82 | 1004.2 |
| 20260505075804 | 71 | 206 | 13.0 | 20.0 | 0.00 | 0.00 | 0.00 | 82 | 1003.6 |
| 20260505075502 | 71 | 186 | 9.0 | 19.0 | 0.00 | 0.00 | 0.00 | 82 | 1004.3 |
| 20260505075304 | 71 | 202 | 10.0 | 21.0 | 0.00 | 0.00 | 0.00 | 82 | 1003.7 |
| 20260505075003 | 71 | 194 | 8.0 | 18.0 | 0.00 | 0.00 | 0.00 | 82 | 1004.3 |
| 20260505074804 | 71 | 206 | 9.0 | 24.0 | 0.00 | 0.00 | 0.00 | 82 | 1004.0 |
| 20260505074304 | 71 | 203 | 10.0 | 17.0 | 0.00 | 0.00 | 0.00 | 82 | 1004.0 |
| 20260505074003 | 71 | 198 | 8.0 | 16.0 | 0.00 | 0.00 | 0.00 | 82 | 1004.7 |
| 20260505073502 | 71 | 198 | 8.0 | 19.0 | 0.00 | 0.00 | 0.00 | 81 | 1004.7 |
| 20260505073304 | 71 | 198 | 9.0 | 16.0 | 0.00 | 0.00 | 0.00 | 81 | 1004.0 |
| 20260505073001 | 71 | 199 | 9.0 | 19.0 | 0.00 | 0.00 | 0.00 | 81 | 1004.8 |
| 20260505072503 | 71 | 185 | 10.0 | 18.0 | 0.00 | 0.00 | 0.00 | 81 | 1004.9 |
| 20260505072305 | 72 | 200 | 12.0 | 20.0 | 0.00 | 0.00 | 0.00 | 81 | 1004.1 |
| 20260505072004 | 71 | 213 | 10.0 | 18.0 | 0.00 | 0.00 | 0.00 | 81 | 1004.9 |
| 20260505071804 | 72 | 199 | 12.0 | 21.0 | 0.00 | 0.00 | 0.00 | 80 | 1004.2 |
| 20260505071504 | 71 | 169 | 9.0 | 18.0 | 0.00 | 0.00 | 0.00 | 80 | 1004.9 |
| 20260505071303 | 72 | 203 | 13.0 | 24.0 | 0.00 | 0.00 | 0.00 | 80 | 1004.3 |
| 20260505071000 | 71 | 165 | 10.0 | 18.0 | 0.00 | 0.00 | 0.00 | 80 | 1005.0 |
| 20260505070804 | 72 | 197 | 10.0 | 23.0 | 0.00 | 0.00 | 0.00 | 80 | 1004.3 |
| 20260505070459 | 72 | 185 | 10.0 | 18.0 | 0.00 | 0.00 | 0.00 | 80 | 1005.1 |
| 20260505070007 | 71 | 195 | 9.0 | 18.0 | 0.00 | 0.00 | 0.00 | 80 | 1005.1 |
| 20260505065004 | 71 | 185 | 8.0 | 17.0 | 0.00 | 0.00 | 0.00 | 80 | 1005.3 |
| 20260505064008 | 71 | 234 | 9.0 | 15.0 | 0.00 | 0.00 | 0.00 | 80 | 1005.3 |
| 20260505063804 | 72 | 194 | 9.0 | 18.0 | 0.00 | 0.00 | 0.00 | 79 | 1004.5 |
| 20260505063303 | 72 | 189 | 11.0 | 17.0 | 0.00 | 0.00 | 0.00 | 79 | 1004.5 |
| 20260505063004 | 71 | 209 | 9.0 | 19.0 | 0.00 | 0.00 | 0.00 | 79 | 1005.2 |
| 20260505062803 | 72 | 196 | 12.0 | 20.0 | 0.00 | 0.00 | 0.00 | 79 | 1004.5 |
| 20260505062502 | 71 | 209 | 9.0 | 19.0 | 0.00 | 0.00 | 0.00 | 79 | 1005.2 |
| 20260505062304 | 72 | 196 | 13.0 | 20.0 | 0.00 | 0.00 | 0.00 | 79 | 1004.4 |
| 20260505061502 | 71 | 207 | 8.0 | 14.0 | 0.00 | 0.00 | 0.00 | 79 | 1005.4 |
| 20260505061304 | 72 | 207 | 13.0 | 18.0 | 0.00 | 0.00 | 0.00 | 79 | 1004.6 |
| 20260505060504 | 71 | 156 | 8.0 | 14.0 | 0.00 | 0.00 | 0.00 | 78 | 1005.4 |
| 20260505060304 | 72 | 193 | 9.0 | 16.0 | 0.00 | 0.00 | 0.00 | 79 | 1004.9 |
| 20260505055804 | 72 | 190 | 11.0 | 23.0 | 0.00 | 0.00 | 0.00 | 78 | 1004.8 |
| 20260505055507 | 71 | 191 | 8.0 | 17.0 | 0.00 | 0.00 | 0.00 | 78 | 1005.5 |
| 20260505055000 | 71 | 217 | 8.0 | 13.0 | 0.00 | 0.00 | 0.00 | 78 | 1005.6 |
| 20260505054804 | 72 | 187 | 11.0 | 17.0 | 0.00 | 0.00 | 0.00 | 78 | 1004.9 |
| 20260505054502 | 71 | 208 | 8.0 | 13.0 | 0.00 | 0.00 | 0.00 | 78 | 1005.6 |
| 20260505054005 | 71 | 196 | 8.0 | 14.0 | 0.00 | 0.00 | 0.00 | 78 | 1005.6 |
| 20260505053502 | 72 | 169 | 8.0 | 16.0 | 0.00 | 0.00 | 0.00 | 77 | 1005.7 |
| 20260505053002 | 72 | 178 | 8.0 | 16.0 | 0.00 | 0.00 | 0.00 | 77 | 1005.8 |
| 20260505052804 | 72 | 204 | 11.0 | 20.0 | 0.00 | 0.00 | 0.00 | 77 | 1005.2 |
| 20260505052501 | 72 | 176 | 9.0 | 17.0 | 0.00 | 0.00 | 0.00 | 77 | 1005.7 |
| 20260505052304 | 72 | 186 | 10.0 | 20.0 | 0.00 | 0.00 | 0.00 | 77 | 1005.2 |
| 20260505052002 | 72 | 210 | 9.0 | 17.0 | 0.00 | 0.00 | 0.00 | 77 | 1005.7 |
| 20260505051803 | 72 | 197 | 12.0 | 20.0 | 0.00 | 0.00 | 0.00 | 77 | 1005.3 |
| 20260505051500 | 71 | 155 | 7.0 | 12.0 | 0.00 | 0.00 | 0.00 | 77 | 1005.9 |
| 20260505051304 | 72 | 184 | 8.0 | 16.0 | 0.00 | 0.00 | 0.00 | 77 | 1005.3 |
| 20260505051001 | 71 | 167 | 6.0 | 13.0 | 0.00 | 0.00 | 0.00 | 77 | 1005.9 |
| 20260505050459 | 71 | 163 | 6.0 | 12.0 | 0.00 | 0.00 | 0.00 | 77 | 1005.9 |
| 20260505050304 | 72 | 194 | 9.0 | 16.0 | 0.00 | 0.00 | 0.00 | 77 | 1005.2 |
| 20260505041506 | 72 | 206 | 7.0 | 12.0 | 0.00 | 0.00 | 0.00 | 76 | 1006.1 |
| 20260505041304 | 72 | 184 | 10.0 | 14.0 | 0.00 | 0.00 | 0.00 | 76 | 1005.4 |
| 20260505041005 | 72 | 174 | 6.0 | 11.0 | 0.00 | 0.00 | 0.00 | 76 | 1006.1 |
| 20260505040503 | 72 | 194 | 7.0 | 11.0 | 0.00 | 0.00 | 0.00 | 75 | 1006.2 |
| 20260505040008 | 72 | 177 | 6.0 | 11.0 | 0.00 | 0.00 | 0.00 | 75 | 1006.1 |
| 20260505035508 | 72 | 159 | 6.0 | 12.0 | 0.00 | 0.00 | 0.00 | 75 | 1006.0 |
| 20260505034503 | 72 | 190 | 6.0 | 9.0 | 0.00 | 0.00 | 0.00 | 74 | 1006.1 |
| 20260505034009 | 72 | 205 | 6.0 | 9.0 | 0.00 | 0.00 | 0.00 | 74 | 1006.0 |
| 20260505033804 | 73 | 179 | 7.0 | 12.0 | 0.00 | 0.00 | 0.00 | 74 | 1005.3 |
| 20260505033503 | 72 | 163 | 6.0 | 10.0 | 0.00 | 0.00 | 0.00 | 74 | 1006.1 |